Voltar ao catálogo

STARLINK-35910

AtivoComunicaçõesVLEO
NORAD 67184·PAYLOAD·🇺🇸 United States

Lançado Dec 17, 2025 de Cape Canaveral Space Force Station

Loading…

Próximas Passagens (próximas 24 horas)

TLE

AtualizadoSource: CelesTrak SupGP

Época: Sep 15, 2026, 02:42 UTC

1 67184C 25303X   26258.11298611  .00037921  00000+0  13735-2 0  2581
2 67184  43.0013 320.5441 0001332 268.2110 309.1648 15.27559340    10

Acompanhe STARLINK-35910 em tempo real com AllMySat

Download on the App Store